User: anonymous   Login
Location: Prairie Dale
(45.6972°N, 104.5033°W)
Time: 05:34:49
(UTC+00:00)
Language:

BEESAT 2 - Orbit

View from above orbital plane
View from above orbital plane
View from above satellite
View from above satellite

Ground track
Ground track

The orbit data is extracted from the following two-line orbital elements,

1 39136U 13015G   22176.84492364  .00007304  00000-0  31603-3 0  9990
2 39136  64.8757  78.7957 0016696 296.2130  63.7282 15.23040942507678
Epoch (UTC): 25 June 2022 20:16:41
Eccentricity: 0.0016696
inclination: 64.8757°
perigee height: 485 km
apogee height: 508 km
right ascension of ascending node: 78.7957°
argument of perigee: 296.2130°
revolutions per day: 15.23040942
mean anomaly at epoch: 63.7282°
orbit number at epoch: 50767

The dashed part of the orbit path shows where the satellite is in the earth's shadow,  

DLR